Regional Weather Roundup
Issued by NWS

Home | Current Version | Previous Version | Graphics & Text | Print | Product List | Glossary On
Versions: 1 2 3 4 5 6 7 8 9 10 11 12 13 14 15 16 17 18 19 20 21 22 23 24 25 26 27 28 29 30 31 32 33 34 35 36 37 38 39 40 41 42 43 44 45 46 47 48 49 50
000
ASUS45 KBOI 312010
RWRID
WEATHER ROUNDUP FOR IDAHO
NATIONAL WEATHER SERVICE BOISE ID
100 PM MST SAT JAN 31 2015

NOTE: "FAIR" INDICATES FEW OR NO CLOUDS BELOW 12000 FEET
WITH NO SIGNIFICANT WEATHER AND/OR OBSTRUCTIONS TO VISIBILITY

IDZ012-014-312100-
SOUTHWEST IDAHO


CITY           SKY/WX    TMP DP  RH WIND       PRES   REMARKS
BOISE          SUNNY     43  31  62 NW12      30.16F
CALDWELL       SUNNY     46  28  49 NW8       30.19F
MOUNTAIN HOME  MOSUNNY   40  34  81 W8        30.15F WCI  34
$$

IDZ016-017-312100-
SOUTHCENTRAL IDAHO


CITY           SKY/WX    TMP DP  RH WIND       PRES   REMARKS
BURLEY         MOSUNNY   41  27  57 W17G25    30.12F
JEROME         CLOUDY    36  30  79 W9        30.13F WCI  29
TWIN FALLS     SUNNY     43  28  55 W21       30.13F
$$

IDZ019>023-312100-
SOUTHEAST IDAHO


CITY           SKY/WX    TMP DP  RH WIND       PRES   REMARKS
IDAHO FALLS    CLOUDY    31  24  75 S7        30.11F WCI  24
POCATELLO      CLOUDY    34  29  82 W8        30.13F WCI  27
REXBURG        CLOUDY    28  25  88 CALM      30.10F
$$

IDZ006-010-011-018-031-032-312100-
CENTRAL IDAHO MOUNTAINS


CITY           SKY/WX    TMP DP  RH WIND       PRES   REMARKS
MCCALL         SUNNY     30  19  63 CALM      30.12F
HAILEY         MOSUNNY   27  21  80 SE7       30.10F WCI  19
STANLEY          N/A     15   4  61 CALM      30.15F
SALMON         CLOUDY    28  18  64 N3        30.20F
CHALLIS        SUNNY     27  17  66 VRB3      30.16F
$$

IDZ002-004-006-007-026-312100-
NORTHERN IDAHO


CITY           SKY/WX    TMP DP  RH WIND       PRES   REMARKS
LEWISTON       CLOUDY    37  30  75 NW5       30.32S WCI  33
LOWELL           N/A     38  27  64 SE7       30.31F WCI  33
COEUR D`ALENE  CLOUDY    34  28  80 W8        30.27S WCI  27
MULLAN PASS    HAZE      25  20  81 VRB3      30.10R VSB 1/4
$$


USA.gov is the U.S. government's official web portal to all federal, state and local government web resources and services.